Regional Weather Roundup
Issued by NWS

Home | Current Version | Previous Version | Text Only | Print | Product List | Glossary Off
Versions: 1 2 3 4 5 6 7 8 9 10 11 12 13 14 15 16 17 18 19 20 21 22 23 24 25 26 27 28 29 30 31 32 33 34 35 36 37 38 39 40 41 42 43 44 45 46 47 48 49 50

000
ASUS43 KLOT 060712
RWRIL

ILLINOIS REGIONAL WEATHER ROUNDUP
NATIONAL WEATHER SERVICE CHICAGO/ROMEOVILLE IL
200 AM CDT WED MAY 06 2015

NOTE: "FAIR" INDICATES FEW OR NO CLOUDS BELOW 12,000 FEET WITH NO
SIGNIFICANT WEATHER AND/OR OBSTRUCTIONS TO VISIBILITY.

* THESE STATIONS ARE NOT UNDER NWS QUALITY CONTROL. THEY ALSO MAY NOT
  REPORT WEATHER SUCH AS PRECIPITATION OR FOG.

ILZ001-002-007-009-015-016-024-060800-
NORTHWEST ILLINOIS

CITY           SKY/WX    TMP DP  RH WIND       PRES   REMARKS
MOLINE         CLOUDY    57  53  86 E10       30.13F FOG
STERLING*      CLOUDY    54  50  87 E13       30.16F VSB 3/4
SAVANNA*       CLOUDY    54  52  94 E7        30.17F FOG
$$

ILZ003-004-008-010-011-017-018-060800-
NORTH CENTRAL ILLINOIS

CITY           SKY/WX    TMP DP  RH WIND       PRES   REMARKS
ROCKFORD       FOG       51  49  92 E8        30.22S VSB 1/2
FREEPORT*      FOG       50  50  99 E9        30.20F VSB 1/2
ROCHELLE*      FOG       52  52 100 E7        30.19F VSB 1/2
DE KALB*       DRZL/FOG  49  48  99 NE8       30.20S VSB 1/2
PERU*          FOG       56  55  97 E10       30.17F VSB 1/2
$$

ILZ005-006-012>014-019>023-060800-
NORTHEAST ILLINOIS

CITY           SKY/WX    TMP DP  RH WIND       PRES   REMARKS
CHICAGO-OHARE  CLOUDY    46  46 100 NE6       30.19F FOG
CHICAGO-MIDWAY CLOUDY    52  49  89 N5        30.19F FOG
AURORA         FOG       51  49  92 NE10      30.19S VSB 1
LANSING*       FOG       49  47  95 CALM      30.19F VSB 3/4
JOLIET*        FOG       54  54  98 NE5       30.18F VSB 3/4
WAUKEGAN       CLOUDY    46  42  86 NE6       30.21F
DUPAGE AIRPORT FOG       49  48  97 NE7       30.19F VSB 1/2
KANKAKEE*      FOG       60  59  98 E5        30.17S VSB 3/4
WHEELING       FOG       45  44  97 NE6       30.22F VSB 3/4
MORRIS*        CLOUDY    54  53  95 NE3       30.14F FOG
ROMEOVILLE*    FOG       51  51 100 NE8       30.18F VSB 3/4
NORTHERLY ISL    N/A     47  45  93 N5          N/A
$$

LMZ740>746-060800-
SOUTHERN LAKE MICHIGAN

STATION/POSITION SKY/WX   TEMP    WIND        PRES    VSBY  WAVE
                          AIR SEA DIR/SP/G                  HT/PER
                          (F)     (DEG/KT/KT) (MB)    (MI)  (FT/S)
HARRISON CRIB              44      20/  7/  8   N/A
BURNHAM HARBOR             47     350/  3/  8   N/A
CALUMET HARBOR             45     340/  4/  5   N/A
BURNS HARBOR               51     290/  2/  3 1023.0F
MICHIGAN CITY              55      90/  7/  9   N/A
MICHIGAN CITY 6N           53 50   90/  4/  4   N/A           1/ 3
ST. JOSEPH                 53 49  130/  6/  8   N/A           1
$$

ILZ025>027-034>036-040-047-049-050-058-095>099-060800-
WEST-CENTRAL ILLINOIS

CITY           SKY/WX    TMP DP  RH WIND       PRES   REMARKS
QUINCY         MOCLDY    69  56  62 S7        30.10F
GALESBURG*     MOCLDY    60  59  96 E7        30.12F FOG
MACOMB*        CLOUDY    64  64  99 E5        30.13F FOG
JACKSONVILLE*  PTCLDY    71  57  61 S7        30.11F
PITTSFIELD*    PTCLDY    67  57  70 SE5       30.12F
$$

ILZ028>032-037-038-041>044-048-051>054-059>061-060800-
CENTRAL ILLINOIS

CITY           SKY/WX    TMP DP  RH WIND       PRES   REMARKS
PONTIAC          N/A     57  57  99 E5        30.17S FOG
BLOOMINGTON    FOG       59  59 100 E3        30.16F VSB<1/4
DECATUR        CLEAR     59  52  77 NE3       30.14F
PEORIA         PTCLDY    63  59  87 E7        30.14F FOG
LACON*         CLOUDY    56  55  94 NE3       30.15F FOG
LINCOLN*       CLEAR     62  60  92 CALM      30.12F FOG
SPRINGFIELD    PTCLDY    69  56  62 S10       30.12F
TAYLORVILLE    MOCLDY    63  55  77 S7        30.13F
$$

ILZ033-039-045-046-055>057-062-063-060800-
EAST-CENTRAL ILLINOIS

CITY           SKY/WX    TMP DP  RH WIND       PRES   REMARKS
CHAMPAIGN      CLEAR     61  57  87 E5        30.15F
DANVILLE*      PTCLDY    59  58  96 CALM      30.14F FOG
RANTOUL*       CLEAR     63  61  94 CALM      30.16S FOG
MATTOON        FAIR      66  55  67 S5        30.14F
PARIS*         CLEAR     62  55  76 S5        30.17S
$$

ILZ079-100>102-060800-
SOUTHWEST ILLINOIS

CITY           SKY/WX    TMP DP  RH WIND       PRES   REMARKS
ALTON          MOCLDY    61  61  99 E3        30.13F
BELLEVILLE     CLOUDY    64  60  89 CALM      30.12F
CAHOKIA*       PTCLDY    65  58  78 CALM      30.12F
SPARTA*        CLEAR     64  59  86 SE3       30.15F
$$

ILZ064>066-069>071-074>076-080>082-084>086-088>090-092>094-060800-
SOUTH-CENTRAL ILLINOIS

CITY           SKY/WX    TMP DP  RH WIND       PRES   REMARKS
CARBONDALE     PTCLDY    63  57  81 CALM      30.15F
CAIRO*         CLEAR     58  55  89 CALM      30.15F
EFFINGHAM*     PTCLDY    62  54  75 CALM      30.17F
MARION         CLEAR     66  57  72 CALM      30.16F
MT. VERNON     CLEAR    N/A N/A N/A CALM      30.16F
CENTRALIA*     PTCLDY    64  55  73 SE5       30.14F
SALEM*         CLEAR     69  57  64 S5        30.15F
METROPOLIS*    CLEAR     58  58 100 CALM      30.16F
$$

ILZ067-068-072-073-078-083-087-091-060800-
SOUTHEAST ILLINOIS

CITY           SKY/WX    TMP DP  RH WIND       PRES   REMARKS
LAWRENCEVILLE  CLEAR     61  54  77 CALM      30.17F
FLORA*         CLEAR     62  55  75 CALM      30.16F
FAIRFIELD*     CLEAR     66  55  67 S3        30.15F
HARRISBURG*    CLEAR     60  56  85 CALM      30.17F
ROBINSON*      CLEAR     61  54  77 CALM      30.17F
CARMI*         CLEAR     59  51  75 CALM      30.16F
$$

ABBREVIATIONS USED IN REMARKS
   TC - TEMPERATURE IN CELSIUS
  WCI - WIND CHILL INDEX
   HX - HEAT INDEX
  VSB - VISIBILITY
$$




USA.gov is the U.S. government's official web portal to all federal, state and local government web resources and services.